Orbital Elements at Epoch 2459000.5 (2020-May-31.0) TDB
Reference: JPL 14 (heliocentric ecliptic J2000)
Element | Value | Uncertainty (1-sigma) | Units |
e | .2356679551653698 | 1.3877e-05 | |
a | 1.087105953638025 | 1.0232e-05 | au |
q | .8309099164960522 | 7.2728e-06 | au |
i | 5.147637095438424 | 0.00032277 | deg |
node | 67.98036523605062 | 5.5313e-05 | deg |
peri | 79.16583148975748 | 0.0004215 | deg |
M | 74.35669024455126 | 0.0020565 | deg |
tp | 2458914.988645113227 (2020-Mar-06.48864511) | 0.0011578 | TDB |
period | 414.0056215250135 1.13 | 0.0058449 1.6e-05 | d yr |
n | .8695534101056873 | 1.2276e-05 | deg/d |
Q | 1.343301990779997 | 1.2643e-05 | au |
|
| | Orbit Determination Parameters
Additional Information
|